Terminal Aerodrome Forecast
Issued by NWS Knoxville/Tri Cities, TN

Home | Current Version | Previous Version | Text Only | Print | Product List | Glossary On
Versions: 1 2 3 4 5 6 7 8 9 10 11 12 13 14 15
000
FTUS44 KMRX 302331
TAFCHA
TAF
KCHA 302331Z 3100/3124 00000KT P6SM SCT150
     FM310600 00000KT P6SM BKN100
     FM311400 26006KT P6SM BKN070
     FM311800 32010KT P6SM BKN050
     FM312100 32012KT P6SM BKN025=

USA.gov is the U.S. government's official web portal to all federal, state and local government web resources and services.